Regional Weather Roundup
Issued by NWS

Home | Current Version | Previous Version | Graphics & Text | Print | Product List | Glossary Off
Versions: 1 2 3 4 5 6 7 8 9 10 11 12 13 14 15 16 17 18 19 20 21 22 23 24 25 26 27 28 29 30 31 32 33 34 35 36 37 38 39 40 41 42 43 44 45 46 47 48 49 50

000
ASUS43 KTOP 212159
RWRKS

WEATHER ROUNDUP FOR KANSAS
NATIONAL WEATHER SERVICE GOODLAND KS
500 PM CDT MON JUL 21 2014

NOTE:  "FAIR" INDICATES FEW OR NO CLOUDS BELOW 12,000 FEET WITH NO
SIGNIFICANT WEATHER AND/OR OBSTRUCTIONS TO VISIBILITY.

KSZ001>006-013>018-027>032-041>047-212300-
NORTHWEST KANSAS

CITY           SKY/WX    TMP DP  RH WIND       PRES   REMARKS
GOODLAND       CLOUDY    92  66  42 NW7       29.99F
HAYS           SUNNY     97  72  44 S21G28    29.92S HX 105
HILL CITY      MOSUNNY  102  59  24 S10       29.90F HX 102
RUSSELL        SUNNY     97  74  47 S21       29.91F HX 108
$$

KSZ061>065-074>080-084>089-212300-
SOUTHWEST KANSAS

CITY           SKY/WX    TMP DP  RH WIND       PRES   REMARKS
DODGE CITY     SUNNY     96  64  34 S17       29.97F HX  98
ELKHART          N/A     94  63  35 S14         N/A  HX  95
GARDEN CITY    SUNNY     98  64  32 S18G26    29.95F HX 100
GREAT BEND     SUNNY     99  73  44 S21G28    29.92S HX 109
LIBERAL        SUNNY    102  63  27 S23       29.98S HX 104
$$

KSZ066>073-081>083-090>101-212300-
SOUTHEAST KANSAS

CITY           SKY/WX    TMP DP  RH WIND       PRES   REMARKS
CHANUTE        MOSUNNY   92  73  53 S14       29.99F HX 100
COFFEYVILLE    MOSUNNY   91  75  59 S12       29.99F HX 101
HUTCHINSON     SUNNY    100  69  36 S16       29.94F HX 106
MEDICINE LODGE   N/A     96  71  44 S13G25    29.94F HX 103
NEWTON         SUNNY     97  70  41 S21G29    29.99F HX 103
PARSONS        MOSUNNY   91  75  59 S9        30.01S HX 101
WICHITA INTL   MOSUNNY   95  70  44 S18G30    29.95F HX 101
WICHITA JABRA  SUNNY     93  75  55 S16G25    29.96F HX 104
WINFIELD       SUNNY     91  77  63 S14       29.98F HX 104
$$

KSZ007>012-019>026-033>040-048>060-102>105-212300-
NORTHEAST KANSAS

CITY           SKY/WX    TMP DP  RH WIND       PRES   REMARKS
CONCORDIA      MOSUNNY  102  66  30 S16G23    29.89S HX 106
EMPORIA        SUNNY     93  72  50 S20G26    29.97S HX 101
LAWRENCE       MOSUNNY   95  71  45 S16       29.94S HX 102
MANHATTAN      MOSUNNY  100  72  40 S15       29.90S HX 109
OLATHE IND     MOSUNNY   94  73  50 S16G23    29.97F HX 103
OLATHE EXE     MOSUNNY   90  74  59 S14       29.97F HX  99
SALINA         SUNNY    103  67  31 S18G29    29.90F HX 108
TOPEKA BILLARD SUNNY     97  74  47 S15G26    29.93S HX 108
TOPEKA FORBES  SUNNY     96  74  48 S17       29.94S HX 107
$$


USA.gov is the U.S. government's official web portal to all federal, state and local government web resources and services.